Flag for China Weather past 2 weeks in Nanjing, Jiangsu, China

Now
66 °F

Haze.


Feels Like: 66 °F
Forecast: 57 / 73 °F
Wind: 6 mph from Southeast

Location: Nanjing

Current Time: Mar 29, 2015 at 9:30:37 PM

Latest Report: Mar 29, 2015 at 9:00 PM


Visibility: 2 mi

Pressure: 29.95 "Hg

Humidity: 64%

Dew point: 54 °F

Location of NanjingLocation

Historic Weather in Nanjing — Graph

°F

Nanjing temperature yesterday

Maximum temperature yesterday: 72 °F (at 3:00 PM)
Minimum temperature yesterday: 46 °F (at 5:00 AM)
Average temperature yesterday: 58 °F

Past Weeks' High & Low Weather Summary

 TemperatureHumidityPressure
High73 °F (Mar 29, 12:00 PM)100% (Mar 15, 12:00 AM)30.51 "Hg (Mar 15, 12:00 AM)
Low43 °F (Mar 24, 3:00 AM)27% (Mar 24, 1:00 PM)29.71 "Hg (Mar 18, 1:00 AM)
Average55 °F78%30.15 "Hg
* Reported Mar 14 8:00 PM — Mar 29 8:00 PM, Nanjing, Weather by CustomWeather, © 2015

Note: Actual official high and low records may vary slightly from our data, if they occured in-between our weather recording intervals... More about our weather records

Advertising

Nanjing weather history for previous 24 hours

 ConditionsComfort  
Time TempWeatherWind HumidityBarometerVisibility
8:00 PM
Sun, Mar 29
66 °FClear.6 mph56%29.95 "Hg4 mi
7:00 PM68 °FClear.6 mph53%29.95 "Hg10 mi
6:00 PM70 °FSunny.10 mph50%29.95 "Hg10 mi
5:00 PM72 °FClear.8 mph53%29.95 "Hg4 mi
4:00 PM73 °FPassing clouds.6 mph44%29.95 "HgN/A
3:00 PM73 °FPassing clouds.6 mph44%29.95 "HgN/A
2:00 PM73 °FPassing clouds.8 mph47%29.98 "HgN/A
1:00 PM73 °FPassing clouds.6 mph47%30.01 "HgN/A
12:00 PM73 °FClear.6 mph47%30.04 "Hg5 mi
11:00 AM72 °FClear.3 mph53%30.07 "Hg5 mi
10:00 AM70 °FClear.3 mph57%30.07 "Hg4 mi
9:00 AM64 °FHaze.1 mph73%30.07 "Hg3 mi
8:00 AM57 °FFog.1 mph88%30.07 "Hg1 mi
7:00 AM52 °FFog.No wind94%30.04 "Hg1 mi
6:00 AM50 °FFog.1 mph100%30.04 "Hg1 mi
5:00 AM50 °FFog.No wind100%30.04 "Hg2 mi
4:00 AM50 °FFog.No wind100%30.01 "Hg2 mi
3:00 AM52 °FFog.No wind94%30.01 "Hg2 mi
2:00 AM52 °FFog.1 mph94%30.04 "Hg2 mi
1:00 AM52 °FFog.1 mph94%30.04 "Hg3 mi
12:00 AM54 °FFog.1 mph88%30.04 "Hg3 mi
11:00 PM
Sat, Mar 28
54 °FClear.1 mph94%30.04 "Hg4 mi
10:00 PM55 °FClear.1 mph88%30.04 "Hg4 mi
9:00 PM59 °FClear.1 mph77%30.04 "Hg5 mi
Weather by CustomWeather, © 2015

See weather overviewHow to use our weather pages